{"data":{"norad_id":59359,"epoch":"2026-09-21T22:30:33.276960Z","epoch_age_seconds":37992,"freshness":"FRESH","line1":"1 59359U 24060M   26264.93788515 -.00001328  00000+0 -38775-4 0  9998","line2":"2 59359  42.9973 231.7921 0000683 288.3269  71.7508 15.27561459140072","mean_motion":15.27561459,"eccentricity":6.83e-5,"inclination_deg":42.9973,"raan_deg":231.7921,"arg_perigee_deg":288.3269,"mean_anomaly_deg":71.7508,"bstar":-3.8775e-5,"rev_number":14007,"period_min":94.267892890063,"perigee_km":482.63599222299,"apogee_km":483.5732378276,"semimajor_km":6861.2416150253,"source":"CELESTRAK","updated_at":"2026-09-22T09:00:48.905153Z"}}